Location: Izdebno
(52.6670°N, 16.2170°E)
Time: 04:08:01
(UTC+02:00)

Transit 2A - Pass Details

Date: 03 March 2024
Orbit: 596 x 956 km, 66.7° (Epoch: 21 April)

Event Time Altitude Azimuth Distance (km) Brightness Sun altitude
Rises 23:39:14 0° 317° (NW) 2,922 9.6 -43.3°
Enters shadow 23:40:28 - 323° (NW) 2,510 9.3 -43.4°
Reaches altitude 10° 23:41:58 10° 334° (NNW) 2,056 - -43.4°
Maximum altitude 23:45:28 21° 24° (NNE) 1,528 - -43.5°
Drops below altitude 10° 23:49:11 10° 73° (ENE) 2,200 - -43.5°
Sets 23:52:13 0° 89° (E) 3,193 - -43.6°
